[ hide orbit diagram ]
For accurate long-term ephemerides, please instead use our Horizons system.This orbit viewer was implemented using two-body methods, and hence should not be used for determining accurate long-term trajectories (over several years or decades) or planetary encounter circumstances.
Orbital Elements at Epoch 2459000.5 (2020-May-31.0) TDB
Reference: JPL 14 (heliocentric ecliptic J2000)
Element | Value | Uncertainty (1-sigma) | Units |
e | .2000750851881383 | 6.3818e-08 | |
a | 2.38500013137919 | 1.375e-08 | au |
q | 1.907821026919778 | 1.4806e-07 | au |
i | 23.9364671312563 | 6.9254e-06 | deg |
node | 181.2882412108677 | 1.4596e-05 | deg |
peri | 49.36731215791858 | 2.2963e-05 | deg |
M | 106.657707082564 | 1.3958e-05 | deg |
tp | 2458601.915156697061 (2019-Apr-28.41515670) | 5.2386e-05 | TDB |
period | 1345.336849197234 3.68 | 1.1634e-05 3.185e-08 | d yr |
n | .2675909756094267 | 2.3141e-09 | deg/d |
Q | 2.862179235838603 | 1.6501e-08 | au |
|
| | Orbit Determination Parameters
Additional Information
|
[ show covariance matrix ]
Physical Parameter Table
Parameter |
Symbol |
Value |
Units |
Sigma |
Reference |
Notes |
absolute magnitude |
H |
17.0 |
|
n/a |
MPO477020 |
|
|
430722 (2004 FG3) Discovered 2004-Mar-18 by LINEAR at Socorro |
Reference: | Last Updated: 2015-04-07 |
|
|